Regional Weather Roundup
Issued by NWS Bismarck, ND

Home | Current Version | Previous Version | Text Only | Print | Product List | Glossary On
Versions: 1 2 3 4 5 6 7 8 9 10 11 12 13 14 15 16 17 18 19 20 21 22 23 24 25 26 27 28 29 30 31 32 33 34 35 36 37 38 39 40 41 42 43 44 45 46 47 48 49 50
000
ASUS43 KBIS 300210
RWRBIS

NWR BROADCAST TEXT
NATIONAL WEATHER SERVICE BISMARCK ND
900 PM CDT MON JUN 29 2015

NOTE: "FAIR" INDICATES FEW OR NO CLOUDS BELOW 12,000 FEET WITH NO
SIGNIFICANT WEATHER AND/OR OBSTRUCTIONS TO VISIBILITY.


CITY           SKY/WX    TMP DP  RH WIND       PRES   REMARKS
WILLISTON      CLOUDY    85  56  37 N13       29.94R
MINOT          MOCLDY    77  66  68 E6        29.89S HAZE
MINOT AFB      CLEAR     80  68  67 E8        29.89S
BISMARCK       PTCLDY    81  66  60 E7        29.89S
DICKINSON      PTCLDY    83  66  56 N6        29.90R
GARRISON         N/A     84  65  52 VRB3      29.91R
HETTINGER ARPT CLEAR     80  70  71 CALM      29.94S
JAMESTOWN      CLOUDY    73  63  70 NE8       29.91R
BEACH          FAIR      75  61  60 N9        29.96S
CROSBY         FAIR      72  55  56 N10G20    29.98R HAZE
HARVEY         FAIR      72  61  68 E6        29.92S
HAZEN          FAIR      81  61  50 E5        29.91R
LINTON         FAIR      77  68  73 SE3       29.90F
MANDAN         FAIR      81  61  50 E7        29.91F
OAKES            N/A     72  68  88 NE5       29.90S
STANLEY        FAIR      77  64  65 N3        29.95S
$$

CITY           SKY/WX    TMP DP  RH WIND       PRES   REMARKS
GRAND FORKS    CLOUDY    66  62  87 NW7       29.89R
GRAND FORKS AF CLEAR     66  60  81 NW6       29.91R
DEVILS LAKE    PTCLDY    68  57  68 E6        29.92S
FARGO          PTCLDY    69  63  81 N7        29.88R
CANDO          FAIR      68  63  83 NE5       29.94S
CAVALIER       FAIR      70  64  83 N6        29.91R
GRAFTON        FAIR      68  63  83 N5        29.91R
LANGDON        FAIR      66  63  88 N5        29.95S
ROLLA          FAIR      64  61  88 NE5       29.97R
WALHALLA       FAIR      68  68 100 MISG      29.92S
$$

CITY           SKY/WX    TMP DP  RH WIND       PRES   REMARKS
ABERDEEN       MOCLDY    78  63  59 NE5       29.89S
MOBRIDGE       CLEAR     87  59  38 E6        29.88F
BUFFALO          N/A     84  65  52 SW7       29.91S
RAPID CITY     CLEAR     79  64  60 SW6       30.02F
GLASGOW        PTCLDY    84  50  30 NE23G32   29.95R HAZE
SIDNEY         MOCLDY    84  59  42 N10       29.94R
WOLF POINT     MOCLDY    86  52  30 NE20G26   29.94R HAZE
GLENDIVE       MOCLDY    86  52  30 N10       29.95S
MILES CITY     MOCLDY    92  42  17 NE9       29.94R
BAKER          MOCLDY    81  58  45 N7        29.97S
$$

CITY           SKY/WX    TMP DP  RH WIND       PRES   REMARKS
BILLINGS       MOCLDY    91  46  21 S7        30.01R
GREAT FALLS    SUNNY     89  48  24 NE13      29.97F
REGINA         LGT RAIN  70  54  56 N9        30.01F SMOKE
ESTEVAN          N/A     72  55  56 N15       29.96F SMOKE
$$



USA.gov is the U.S. government's official web portal to all federal, state and local government web resources and services.